Regional Weather Roundup
Issued by NWS

Home | Current Version | Previous Version | Text Only | Print | Product List | Glossary On
Versions: 1 2 3 4 5 6 7 8 9 10 11 12 13 14 15 16 17 18 19 20 21 22 23 24 25 26 27 28 29 30 31 32 33 34 35 36 37 38 39 40 41 42 43 44 45 46 47 48 49 50
000
ASUS44 KJAN 291110
RWRMS

MISSISSIPPI HOURLY WEATHER ROUNDUP
NATIONAL WEATHER SERVICE JACKSON MS
600 AM CDT WED JUL 29 2015

NOTE: "FAIR: INDICATES FEW OR NO CLOUDS BELOW 12,000 FEET WITH NO
SIGNIFICANT WEATHER AND/OR OBSTRUCTIONS TO VISIBILITY.

MSZ001>002-007>008-010>013-018>021-025>028-034>036-291200-
NORTHWEST MISSISSIPPI

CITY           SKY/WX    TMP DP  RH WIND       PRES   REMARKS
CLARKSDALE     FAIR      75  75 100 CALM      30.01R
CLEVELAND      FAIR      77  77 100 CALM      30.00R
GREENWOOD      CLEAR     77  74  90 CALM      30.01R FOG
GREENVILLE     CLEAR     80  73  79 W6        30.00R
OLIVE BRANCH     N/A     79  79 100 CALM      30.03R
OXFORD         FAIR      73  73 100 CALM      30.04R
TUNICA         MOSUNNY   77  75  94 CALM      30.02R
$$

MSZ003>006-009-014>017-022>024-029>033-037>039-291200-
NORTHEAST MISSISSIPPI

CITY           SKY/WX    TMP DP  RH WIND       PRES   REMARKS
COLUMBUS AFB   CLEAR     77  76  95 CALM      30.00R
CORINTH        PTSUNNY   75  73  94 CALM      30.02R
GOLDN TRIANGLE CLEAR     77  72  83 NW5       29.99R
STARKVILLE     FAIR      73  72  94 CALM      30.00R FOG
TUPELO         MOCLDY    79  76  90 CALM      30.01R
$$

MSZ040-058-291200-
CENTRAL MISSISSIPPI

CITY           SKY/WX    TMP DP  RH WIND       PRES   REMARKS
JACKSON INTL   CLEAR     78  72  81 CALM      30.00R
JACKSON HAWKNS CLEAR     80  70  71 NW5       30.01R
MERIDIAN KEY   CLEAR     74  72  93 CALM      30.01R
MERIDIAN NAS   CLEAR     76  73  91 W5        30.00R
VICKSBURG      CLEAR     75  72  90 CALM      30.00R FOG
$$

MSZ059>079-291200-
SOUTH MISSISSIPPI

CITY           SKY/WX    TMP DP  RH WIND       PRES   REMARKS
BROOKHAVEN     FAIR      79  73  83 W5        30.03R
HATTIESBURG    CLEAR     78  73  84 CALM      29.99R
MCCOMB         CLEAR     78  73  84 NW3       30.02R
NATCHEZ        PTCLDY    75  72  88 CALM      30.03R
PINE BELT      CLEAR     75  72  88 W3        30.01R
$$

MSZ080>082-291200-
COASTAL MISSISSIPPI

CITY           SKY/WX    TMP DP  RH WIND       PRES   REMARKS
BILOXI         CLEAR     81  76  83 VRB3      29.98R
PASCAGOULA     CLOUDY    79  76  90 W3        29.98R
GULFPORT       PTCLDY    79  75  87 NW5       29.98R
$$


USA.gov is the U.S. government's official web portal to all federal, state and local government web resources and services.